User: anonymous   Login
Location: San Francisco
(37.7750°N, 122.4180°W)
Time: 05:18:03
(UTC-08:00)
Language:

GP-B - Orbit

View from above orbital plane
View from above orbital plane
View from above satellite
View from above satellite

Ground track
Ground track

The orbit data is extracted from the following two-line orbital elements,

1 28230U 04014A   14326.58496708  .00001077  00000-0  14809-3 0  2226
2 28230 089.8797 137.7810 0001810 111.5392 248.6023 14.77766643570585
Epoch (UTC): 22 November 2014 14:02:21
Eccentricity: 0.0001810
inclination: 89.8797°
perigee height: 635 km
apogee height: 637 km
right ascension of ascending node: 137.7810°
argument of perigee: 111.5392°
revolutions per day: 14.77766643
mean anomaly at epoch: 248.6023°
orbit number at epoch: 57058

The dashed part of the orbit path shows where the satellite is in the earth's shadow,  

DLR